Time,TemperatureF,DewpointF,PressureIn,WindDirection,WindDirectionDegrees,WindSpeedMPH,WindSpeedGustMPH,Humidity,HourlyPrecipIn,Conditions,Clouds,dailyrainin,SolarRadiationWatts/m^2,SoftwareType,DateUTC
2013-11-11 00:00:00,44.3,26.4,30.08,West,270,20.0,21.0,49,0.00,,,0.00,0.00,VWS V14.01,2013-11-11 05:00:00,
2013-11-11 00:01:00,44.3,26.4,30.08,WNW,286,12.0,20.0,49,0.00,,,0.00,0.00,VWS V14.01,2013-11-11 05:01:00,
2013-11-11 00:02:00,44.3,26.4,30.08,West,269,13.0,20.0,49,0.00,,,0.00,0.00,VWS V14.01,2013-11-11 05:02:00,
2013-11-11 00:07:00,44.2,26.3,30.08,West,271,12.0,20.0,49,0.00,,,0.00,0.00,VWS V14.01,2013-11-11 05:07:00,
2013-11-11 00:12:00,44.2,26.3,30.08,SSW,198,7.0,20.0,49,0.00,,,0.00,0.00,VWS V14.01,2013-11-11 05:12:00,
2013-11-11 00:15:00,44.2,26.3,30.08,WSW,237,14.0,20.0,49,0.00,,,0.00,0.00,VWS V14.01,2013-11-11 05:15:00,
2013-11-11 00:17:00,44.1,26.2,30.08,West,263,15.0,22.0,49,0.00,,,0.00,0.00,VWS V14.01,2013-11-11 05:17:00,
2013-11-11 00:22:00,44.1,26.2,30.08,WNW,298,4.0,22.0,49,0.00,,,0.00,0.00,VWS V14.01,2013-11-11 05:22:00,
2013-11-11 00:27:00,43.9,26.0,30.08,WSW,240,6.0,22.0,49,0.00,,,0.00,0.00,VWS V14.01,2013-11-11 05:27:00,
2013-11-11 00:30:00,43.9,26.0,30.09,NNE,28,6.0,22.0,49,0.00,,,0.00,0.00,VWS V14.01,2013-11-11 05:30:00,
2013-11-11 00:32:00,43.9,25.5,30.09,West,267,7.0,25.0,48,0.00,,,0.00,0.00,VWS V14.01,2013-11-11 05:32:00,
2013-11-11 00:37:00,43.8,24.9,30.09,SSW,207,4.0,25.0,47,0.00,,,0.00,0.00,VWS V14.01,2013-11-11 05:37:00,
2013-11-11 00:42:00,43.6,24.7,30.09,West,279,5.0,25.0,47,0.00,,,0.00,0.00,VWS V14.01,2013-11-11 05:42:00,
2013-11-11 00:45:00,43.5,24.6,30.09,WSW,244,7.0,25.0,47,0.00,,,0.00,0.00,VWS V14.01,2013-11-11 05:45:00,
2013-11-11 00:47:00,43.5,24.6,30.09,SW,221,7.0,18.0,47,0.00,,,0.00,0.00,VWS V14.01,2013-11-11 05:47:00,
2013-11-11 00:52:00,43.3,24.9,30.09,West,267,13.0,18.0,48,0.00,,,0.00,0.00,VWS V14.01,2013-11-11 05:52:00,
2013-11-11 00:57:00,43.2,24.9,30.09,WNW,286,0.0,18.0,48,0.00,,,0.00,0.00,VWS V14.01,2013-11-11 05:57:00,
2013-11-11 01:00:00,43.2,24.9,30.09,West,268,8.0,18.0,48,0.00,,,0.00,0.00,VWS V14.01,2013-11-11 06:00:00,
2013-11-11 01:02:00,43.2,24.9,30.09,West,281,15.0,18.0,48,0.00,,,0.00,0.00,VWS V14.01,2013-11-11 06:02:00,
2013-11-11 01:07:00,43.2,24.9,30.09,WSW,257,6.0,22.0,48,0.00,,,0.00,0.00,VWS V14.01,2013-11-11 06:07:00,
2013-11-11 01:12:00,43.1,24.8,30.09,West,265,12.0,22.0,48,0.00,,,0.00,0.00,VWS V14.01,2013-11-11 06:12:00,
2013-11-11 01:15:00,43.2,24.9,30.11,NNW,342,10.0,22.0,48,0.00,,,0.00,0.00,VWS V14.01,2013-11-11 06:15:00,
2013-11-11 01:17:00,43.2,24.9,30.11,SW,219,8.0,19.0,48,0.00,,,0.00,0.00,VWS V14.01,2013-11-11 06:17:00,
2013-11-11 01:22:00,43.1,24.8,30.11,SSW,206,8.0,19.0,48,0.00,,,0.00,0.00,VWS V14.01,2013-11-11 06:22:00,
2013-11-11 01:27:00,43.1,24.8,30.11,West,267,8.0,19.0,48,0.00,,,0.00,0.00,VWS V14.01,2013-11-11 06:27:00,
2013-11-11 01:30:00,42.9,25.1,30.11,WSW,242,8.0,19.0,49,0.00,,,0.00,0.00,VWS V14.01,2013-11-11 06:30:00,
2013-11-11 01:32:00,42.9,25.1,30.11,SW,230,10.0,13.0,49,0.00,,,0.00,0.00,VWS V14.01,2013-11-11 06:32:00,
2013-11-11 01:37:00,42.9,25.1,30.11,WSW,246,9.0,13.0,49,0.00,,,0.00,0.00,VWS V14.01,2013-11-11 06:37:00,
2013-11-11 01:42:00,42.9,25.1,30.11,WNW,290,6.0,14.0,49,0.00,,,0.00,0.00,VWS V14.01,2013-11-11 06:42:00,
2013-11-11 01:45:00,42.8,25.0,30.12,West,265,1.0,14.0,49,0.00,,,0.00,0.00,VWS V14.01,2013-11-11 06:45:00,
2013-11-11 01:46:00,42.8,25.0,30.12,WSW,252,9.0,10.0,49,0.00,,,0.00,0.00,VWS V14.01,2013-11-11 06:46:00,
2013-11-11 01:51:00,42.6,24.8,30.12,WSW,252,11.0,15.0,49,0.00,,,0.00,0.00,VWS V14.01,2013-11-11 06:51:00,
2013-11-11 01:56:00,42.6,24.8,30.12,WSW,242,10.0,15.0,49,0.00,,,0.00,0.00,VWS V14.01,2013-11-11 06:56:00,
2013-11-11 02:00:00,42.6,24.8,30.12,WSW,239,5.0,15.0,49,0.00,,,0.00,0.00,VWS V14.01,2013-11-11 07:00:00,
2013-11-11 02:01:00,42.5,24.7,30.12,WSW,241,13.0,13.0,49,0.00,,,0.00,0.00,VWS V14.01,2013-11-11 07:01:00,
2013-11-11 02:06:00,42.5,24.7,30.12,SW,234,6.0,14.0,49,0.00,,,0.00,0.00,VWS V14.01,2013-11-11 07:06:00,
2013-11-11 02:11:00,42.3,24.5,30.12,West,281,8.0,20.0,49,0.00,,,0.00,0.00,VWS V14.01,2013-11-11 07:11:00,
2013-11-11 02:15:00,42.3,24.5,30.13,West,263,7.0,20.0,49,0.00,,,0.00,0.00,VWS V14.01,2013-11-11 07:15:00,
2013-11-11 02:16:00,42.3,24.5,30.13,West,265,7.0,14.0,49,0.00,,,0.00,0.00,VWS V14.01,2013-11-11 07:16:00,
2013-11-11 02:21:00,42.3,24.5,30.13,WSW,254,8.0,15.0,49,0.00,,,0.00,0.00,VWS V14.01,2013-11-11 07:21:00,
2013-11-11 02:26:00,42.2,24.4,30.13,West,279,3.0,15.0,49,0.00,,,0.00,0.00,VWS V14.01,2013-11-11 07:26:00,
2013-11-11 02:30:00,42.2,24.4,30.14,WSW,243,12.0,15.0,49,0.00,,,0.00,0.00,VWS V14.01,2013-11-11 07:30:00,
2013-11-11 02:31:00,42.2,24.4,30.14,West,265,6.0,12.0,49,0.00,,,0.00,0.00,VWS V14.01,2013-11-11 07:31:00,
2013-11-11 02:36:00,42.2,24.4,30.14,SW,235,16.0,16.0,49,0.00,,,0.00,0.00,VWS V14.01,2013-11-11 07:36:00,
2013-11-11 02:41:00,42.3,24.0,30.14,WSW,249,7.0,21.0,48,0.00,,,0.00,0.00,VWS V14.01,2013-11-11 07:41:00,
2013-11-11 02:45:00,42.2,24.4,30.14,West,272,7.0,21.0,49,0.00,,,0.00,0.00,VWS V14.01,2013-11-11 07:45:00,
2013-11-11 02:46:00,42.2,24.4,30.14,WSW,252,5.0,11.0,49,0.00,,,0.00,0.00,VWS V14.01,2013-11-11 07:46:00,
2013-11-11 02:51:00,42.1,24.3,30.14,WSW,240,7.0,11.0,49,0.00,,,0.00,0.00,VWS V14.01,2013-11-11 07:51:00,
2013-11-11 02:56:00,41.9,24.6,30.14,WSW,249,6.0,11.0,50,0.00,,,0.00,0.00,VWS V14.01,2013-11-11 07:56:00,
2013-11-11 03:00:00,41.8,24.5,30.14,SSW,211,8.0,12.0,50,0.00,,,0.00,0.00,VWS V14.01,2013-11-11 08:00:00,
2013-11-11 03:01:00,41.8,24.5,30.14,West,261,8.0,9.0,50,0.00,,,0.00,0.00,VWS V14.01,2013-11-11 08:01:00,
2013-11-11 03:06:00,41.8,24.5,30.14,West,276,7.0,13.0,50,0.00,,,0.00,0.00,VWS V14.01,2013-11-11 08:06:00,
2013-11-11 03:11:00,41.6,24.4,30.14,SW,221,7.0,13.0,50,0.00,,,0.00,0.00,VWS V14.01,2013-11-11 08:11:00,
2013-11-11 03:15:00,41.6,24.4,30.14,SW,232,7.0,13.0,50,0.00,,,0.00,0.00,VWS V14.01,2013-11-11 08:15:00,
2013-11-11 03:16:00,41.6,24.4,30.14,West,263,2.0,7.0,50,0.00,,,0.00,0.00,VWS V14.01,2013-11-11 08:16:00,
2013-11-11 03:21:00,41.5,24.3,30.14,WSW,247,0.0,8.0,50,0.00,,,0.00,0.00,VWS V14.01,2013-11-11 08:21:00,
2013-11-11 03:26:00,41.5,24.7,30.14,WSW,257,7.0,9.0,51,0.00,,,0.00,0.00,VWS V14.01,2013-11-11 08:26:00,
2013-11-11 03:30:00,41.5,24.7,30.15,West,268,2.0,9.0,51,0.00,,,0.00,0.00,VWS V14.01,2013-11-11 08:30:00,
2013-11-11 03:31:00,41.5,24.7,30.15,West,279,5.0,6.0,51,0.00,,,0.00,0.00,VWS V14.01,2013-11-11 08:31:00,
2013-11-11 03:36:00,41.5,24.7,30.15,WNW,300,0.0,6.0,51,0.00,,,0.00,0.00,VWS V14.01,2013-11-11 08:36:00,
2013-11-11 03:41:00,41.3,25.0,30.15,WNW,298,0.0,6.0,52,0.00,,,0.00,0.00,VWS V14.01,2013-11-11 08:41:00,
2013-11-11 03:45:00,41.2,24.9,30.16,West,260,0.0,6.0,52,0.00,,,0.00,0.00,VWS V14.01,2013-11-11 08:45:00,
2013-11-11 03:46:00,41.2,24.9,30.16,WNW,286,0.0,7.0,52,0.00,,,0.00,0.00,VWS V14.01,2013-11-11 08:46:00,
2013-11-11 03:51:00,41.1,25.3,30.16,West,272,6.0,10.0,53,0.00,,,0.00,0.00,VWS V14.01,2013-11-11 08:51:00,
2013-11-11 03:56:00,41.1,25.3,30.16,WNW,298,0.0,10.0,53,0.00,,,0.00,0.00,VWS V14.01,2013-11-11 08:56:00,
2013-11-11 04:00:00,41.1,25.3,30.16,WNW,293,2.0,10.0,53,0.00,,,0.00,0.00,VWS V14.01,2013-11-11 09:00:00,
2013-11-11 04:01:00,40.9,25.1,30.16,WNW,294,6.0,6.0,53,0.00,,,0.00,0.00,VWS V14.01,2013-11-11 09:01:00,
2013-11-11 04:06:00,40.8,25.0,30.16,NNW,341,4.0,7.0,53,0.00,,,0.00,0.00,VWS V14.01,2013-11-11 09:06:00,
2013-11-11 04:11:00,40.6,24.8,30.16,West,270,6.0,7.0,53,0.00,,,0.00,0.00,VWS V14.01,2013-11-11 09:11:00,
2013-11-11 04:15:00,40.6,24.8,30.16,WNW,290,0.0,7.0,53,0.00,,,0.00,0.00,VWS V14.01,2013-11-11 09:15:00,
2013-11-11 04:16:00,40.6,24.8,30.16,WSW,244,6.0,7.0,53,0.00,,,0.00,0.00,VWS V14.01,2013-11-11 09:16:00,
2013-11-11 04:21:00,40.5,24.7,30.16,WNW,284,7.0,12.0,53,0.00,,,0.00,0.00,VWS V14.01,2013-11-11 09:21:00,
2013-11-11 04:26:00,40.5,24.7,30.16,West,272,5.0,12.0,53,0.00,,,0.00,0.00,VWS V14.01,2013-11-11 09:26:00,
2013-11-11 04:30:00,40.5,24.7,30.16,West,275,6.0,13.0,53,0.00,,,0.00,0.00,VWS V14.01,2013-11-11 09:30:00,
2013-11-11 04:31:00,40.5,24.7,30.16,West,262,5.0,7.0,53,0.00,,,0.00,0.00,VWS V14.01,2013-11-11 09:31:00,
2013-11-11 04:36:00,40.3,24.5,30.16,WNW,297,1.0,7.0,53,0.00,,,0.00,0.00,VWS V14.01,2013-11-11 09:36:00,
2013-11-11 04:41:00,40.2,24.9,30.16,WNW,287,5.0,7.0,54,0.00,,,0.00,0.00,VWS V14.01,2013-11-11 09:41:00,
2013-11-11 04:45:00,39.9,24.6,30.16,West,263,2.0,8.0,54,0.00,,,0.00,0.00,VWS V14.01,2013-11-11 09:45:00,
2013-11-11 04:46:00,39.9,24.6,30.16,West,269,1.0,7.0,54,0.00,,,0.00,0.00,VWS V14.01,2013-11-11 09:46:00,
2013-11-11 04:51:00,40.1,24.8,30.16,West,278,0.0,7.0,54,0.00,,,0.00,0.00,VWS V14.01,2013-11-11 09:51:00,
2013-11-11 04:56:00,39.9,25.1,30.16,West,272,0.0,7.0,55,0.00,,,0.00,0.00,VWS V14.01,2013-11-11 09:56:00,
2013-11-11 05:00:00,39.8,25.0,30.17,West,272,0.0,7.0,55,0.00,,,0.00,0.00,VWS V14.01,2013-11-11 10:00:00,
2013-11-11 05:01:00,39.6,24.8,30.17,West,272,3.0,5.0,55,0.00,,,0.00,0.00,VWS V14.01,2013-11-11 10:01:00,
2013-11-11 05:06:00,39.5,24.7,30.17,WSW,248,5.0,8.0,55,0.00,,,0.00,0.00,VWS V14.01,2013-11-11 10:06:00,
2013-11-11 05:11:00,39.6,24.8,30.17,West,267,0.0,10.0,55,0.00,,,0.00,0.00,VWS V14.01,2013-11-11 10:11:00,
2013-11-11 05:15:00,39.6,24.8,30.17,WNW,293,0.0,10.0,55,0.00,,,0.00,0.00,VWS V14.01,2013-11-11 10:15:00,
2013-11-11 05:16:00,39.5,24.7,30.17,WNW,293,0.0,0.0,55,0.00,,,0.00,0.00,VWS V14.01,2013-11-11 10:16:00,
2013-11-11 05:21:00,39.2,24.8,30.17,WNW,292,1.0,4.0,56,0.00,,,0.00,0.00,VWS V14.01,2013-11-11 10:21:00,
2013-11-11 05:26:00,39.1,24.7,30.17,West,269,6.0,9.0,56,0.00,,,0.00,0.00,VWS V14.01,2013-11-11 10:26:00,
2013-11-11 05:30:00,38.9,25.0,30.18,West,276,0.0,9.0,57,0.00,,,0.00,0.00,VWS V14.01,2013-11-11 10:30:00,
2013-11-11 05:31:00,38.9,25.0,30.18,WSW,249,1.0,6.0,57,0.00,,,0.00,0.00,VWS V14.01,2013-11-11 10:31:00,
2013-11-11 05:36:00,38.8,24.9,30.18,West,264,0.0,6.0,57,0.00,,,0.00,0.00,VWS V14.01,2013-11-11 10:36:00,
2013-11-11 05:41:00,38.8,24.9,30.18,WNW,297,5.0,11.0,57,0.00,,,0.00,0.00,VWS V14.01,2013-11-11 10:41:00,
2013-11-11 05:45:00,38.9,25.0,30.19,West,276,4.0,11.0,57,0.00,,,0.00,0.00,VWS V14.01,2013-11-11 10:45:00,
2013-11-11 05:46:00,38.9,25.0,30.19,WNW,284,0.0,7.0,57,0.00,,,0.00,0.00,VWS V14.01,2013-11-11 10:46:00,
2013-11-11 05:51:00,39.1,25.2,30.19,West,271,4.0,8.0,57,0.00,,,0.00,0.00,VWS V14.01,2013-11-11 10:51:00,
2013-11-11 05:56:00,38.9,25.0,30.19,West,271,0.0,8.0,57,0.00,,,0.00,0.00,VWS V14.01,2013-11-11 10:56:00,
2013-11-11 06:00:00,38.8,24.9,30.19,West,271,0.0,8.0,57,0.00,,,0.00,0.00,VWS V14.01,2013-11-11 11:00:00,
2013-11-11 06:01:00,38.8,24.9,30.19,West,271,0.0,0.0,57,0.00,,,0.00,0.00,VWS V14.01,2013-11-11 11:01:00,
2013-11-11 06:06:00,38.6,25.1,30.19,West,271,0.0,2.0,58,0.00,,,0.00,0.00,VWS V14.01,2013-11-11 11:06:00,
2013-11-11 06:11:00,38.5,25.0,30.19,West,271,0.0,2.0,58,0.00,,,0.00,0.00,VWS V14.01,2013-11-11 11:11:00,
2013-11-11 06:15:00,38.5,25.4,30.19,West,271,0.0,2.0,59,0.00,,,0.00,0.00,VWS V14.01,2013-11-11 11:15:00,
2013-11-11 06:16:00,38.5,25.4,30.19,West,271,0.0,1.0,59,0.00,,,0.00,0.00,VWS V14.01,2013-11-11 11:16:00,
2013-11-11 06:21:00,38.2,25.1,30.19,West,271,0.0,1.0,59,0.00,,,0.00,0.00,VWS V14.01,2013-11-11 11:21:00,
2013-11-11 06:26:00,37.9,24.9,30.19,West,271,0.0,1.0,59,0.00,,,0.00,0.00,VWS V14.01,2013-11-11 11:26:00,
2013-11-11 06:30:00,37.8,24.8,30.20,NW,307,2.0,4.0,59,0.00,,,0.00,0.00,VWS V14.01,2013-11-11 11:30:00,
2013-11-11 06:31:00,37.8,24.8,30.20,NW,307,0.0,2.0,59,0.00,,,0.00,0.00,VWS V14.01,2013-11-11 11:31:00,
2013-11-11 06:36:00,37.6,24.6,30.20,NW,307,0.0,2.0,59,0.00,,,0.00,0.00,VWS V14.01,2013-11-11 11:36:00,
2013-11-11 06:41:00,37.5,24.9,30.20,NW,307,0.0,2.0,60,0.00,,,0.00,0.00,VWS V14.01,2013-11-11 11:41:00,
2013-11-11 06:45:00,37.3,24.7,30.20,NW,307,0.0,2.0,60,0.00,,,0.00,0.00,VWS V14.01,2013-11-11 11:45:00,
2013-11-11 06:46:00,37.3,24.7,30.20,NW,308,0.0,0.0,60,0.00,,,0.00,5.00,VWS V14.01,2013-11-11 11:46:00,
2013-11-11 06:51:00,37.2,25.0,30.20,NW,307,0.0,0.0,61,0.00,,,0.00,5.00,VWS V14.01,2013-11-11 11:51:00,
2013-11-11 06:56:00,37.0,24.8,30.20,NW,307,0.0,0.0,61,0.00,,,0.00,9.00,VWS V14.01,2013-11-11 11:56:00,
2013-11-11 07:00:00,36.9,25.1,30.20,NW,307,0.0,0.0,62,0.00,,,0.00,11.00,VWS V14.01,2013-11-11 12:00:00,
2013-11-11 07:01:00,36.9,25.1,30.20,NW,307,0.0,0.0,62,0.00,,,0.00,11.00,VWS V14.01,2013-11-11 12:01:00,
2013-11-11 07:06:00,36.8,25.8,30.20,NW,307,0.0,0.0,64,0.00,,,0.00,14.00,VWS V14.01,2013-11-11 12:06:00,
2013-11-11 07:11:00,36.6,25.6,30.20,NW,307,0.0,0.0,64,0.00,,,0.00,18.00,VWS V14.01,2013-11-11 12:11:00,
2013-11-11 07:15:00,36.5,25.5,30.21,NW,307,0.0,0.0,64,0.00,,,0.00,21.00,VWS V14.01,2013-11-11 12:15:00,
2013-11-11 07:16:00,36.3,25.3,30.21,NW,307,0.0,0.0,64,0.00,,,0.00,23.00,VWS V14.01,2013-11-11 12:16:00,
2013-11-11 07:21:00,36.2,25.6,30.21,NW,307,0.0,0.0,65,0.00,,,0.00,25.00,VWS V14.01,2013-11-11 12:21:00,
2013-11-11 07:26:00,35.9,25.7,30.21,NW,308,0.0,1.0,66,0.00,,,0.00,28.00,VWS V14.01,2013-11-11 12:26:00,
2013-11-11 07:30:00,35.6,25.7,30.22,NW,308,0.0,1.0,67,0.00,,,0.00,30.00,VWS V14.01,2013-11-11 12:30:00,
2013-11-11 07:31:00,35.5,25.6,30.22,NW,307,0.0,0.0,67,0.00,,,0.00,32.00,VWS V14.01,2013-11-11 12:31:00,
2013-11-11 07:36:00,35.3,26.2,30.22,NW,307,0.0,0.0,69,0.00,,,0.00,39.00,VWS V14.01,2013-11-11 12:36:00,
2013-11-11 07:41:00,34.9,25.8,30.22,NW,307,0.0,1.0,69,0.00,,,0.00,49.00,VWS V14.01,2013-11-11 12:41:00,
2013-11-11 07:45:00,34.7,25.6,30.22,NW,307,0.0,1.0,69,0.00,,,0.00,58.00,VWS V14.01,2013-11-11 12:45:00,
2013-11-11 07:46:00,34.7,25.6,30.22,NW,307,0.0,0.0,69,0.00,,,0.00,62.00,VWS V14.01,2013-11-11 12:46:00,
2013-11-11 07:51:00,34.7,25.6,30.22,NW,307,0.0,0.0,69,0.00,,,0.00,67.00,VWS V14.01,2013-11-11 12:51:00,
2013-11-11 07:56:00,34.7,25.9,30.22,NW,307,0.0,0.0,70,0.00,,,0.00,81.00,VWS V14.01,2013-11-11 12:56:00,
2013-11-11 08:00:00,34.9,26.1,30.22,NW,308,0.0,0.0,70,0.00,,,0.00,88.00,VWS V14.01,2013-11-11 13:00:00,
2013-11-11 08:01:00,35.0,25.9,30.22,NW,307,0.0,1.0,69,0.00,,,0.00,88.00,VWS V14.01,2013-11-11 13:01:00,
2013-11-11 08:06:00,35.6,25.7,30.22,NW,307,0.0,2.0,67,0.00,,,0.00,79.00,VWS V14.01,2013-11-11 13:06:00,
2013-11-11 08:11:00,36.2,25.6,30.22,West,261,0.0,5.0,65,0.00,,,0.00,74.00,VWS V14.01,2013-11-11 13:11:00,
2013-11-11 08:15:00,36.8,25.4,30.22,WSW,239,0.0,5.0,63,0.00,,,0.00,91.00,VWS V14.01,2013-11-11 13:15:00,
2013-11-11 08:16:00,36.9,25.9,30.22,WSW,239,0.0,0.0,64,0.00,,,0.00,97.00,VWS V14.01,2013-11-11 13:16:00,
2013-11-11 08:21:00,37.2,26.2,30.22,WSW,239,1.0,4.0,64,0.00,,,0.00,118.00,VWS V14.01,2013-11-11 13:21:00,
2013-11-11 08:26:00,38.6,25.5,30.22,WSW,239,1.0,4.0,59,0.00,,,0.00,120.00,VWS V14.01,2013-11-11 13:26:00,
2013-11-11 08:30:00,39.2,25.7,30.22,WSW,239,0.0,4.0,58,0.00,,,0.00,125.00,VWS V14.01,2013-11-11 13:30:00,
2013-11-11 08:31:00,39.3,25.8,30.22,WSW,239,2.0,3.0,58,0.00,,,0.00,127.00,VWS V14.01,2013-11-11 13:31:00,
2013-11-11 08:36:00,39.6,25.6,30.22,West,275,0.0,6.0,57,0.00,,,0.00,128.00,VWS V14.01,2013-11-11 13:36:00,
2013-11-11 08:41:00,39.8,25.8,30.22,West,270,0.0,6.0,57,0.00,,,0.00,132.00,VWS V14.01,2013-11-11 13:41:00,
2013-11-11 08:45:00,39.9,25.9,30.22,West,270,1.0,6.0,57,0.00,,,0.00,134.00,VWS V14.01,2013-11-11 13:45:00,
2013-11-11 08:46:00,39.9,25.9,30.22,NW,315,3.0,4.0,57,0.00,,,0.00,134.00,VWS V14.01,2013-11-11 13:46:00,
2013-11-11 08:51:00,39.9,25.9,30.22,WNW,300,0.0,6.0,57,0.00,,,0.00,137.00,VWS V14.01,2013-11-11 13:51:00,
2013-11-11 08:56:00,40.1,25.7,30.22,West,266,0.0,8.0,56,0.00,,,0.00,142.00,VWS V14.01,2013-11-11 13:56:00,
2013-11-11 09:00:00,40.1,25.7,30.21,WNW,294,2.0,8.0,56,0.00,,,0.00,142.00,VWS V14.01,2013-11-11 14:00:00,
2013-11-11 09:01:00,40.2,26.2,30.21,SW,236,0.0,3.0,57,0.00,,,0.00,141.00,VWS V14.01,2013-11-11 14:01:00,
2013-11-11 09:06:00,40.3,25.9,30.21,WNW,297,0.0,5.0,56,0.00,,,0.00,139.00,VWS V14.01,2013-11-11 14:06:00,
2013-11-11 09:11:00,40.3,26.3,30.21,West,281,1.0,6.0,57,0.00,,,0.00,149.00,VWS V14.01,2013-11-11 14:11:00,
2013-11-11 09:15:00,40.3,25.9,30.20,WNW,294,0.0,8.0,56,0.00,,,0.00,160.00,VWS V14.01,2013-11-11 14:15:00,
2013-11-11 09:16:00,40.3,25.9,30.20,WNW,294,1.0,4.0,56,0.00,,,0.00,163.00,VWS V14.01,2013-11-11 14:16:00,
2013-11-11 09:21:00,40.5,26.5,30.20,WNW,292,0.0,5.0,57,0.00,,,0.00,171.00,VWS V14.01,2013-11-11 14:21:00,
2013-11-11 09:26:00,40.8,26.8,30.20,West,264,0.0,5.0,57,0.00,,,0.00,185.00,VWS V14.01,2013-11-11 14:26:00,
2013-11-11 09:30:00,40.8,26.3,30.20,West,264,0.0,5.0,56,0.00,,,0.00,190.00,VWS V14.01,2013-11-11 14:30:00,
2013-11-11 09:31:00,40.8,26.8,30.20,West,264,0.0,0.0,57,0.00,,,0.00,192.00,VWS V14.01,2013-11-11 14:31:00,
2013-11-11 09:36:00,40.8,26.8,30.20,West,260,0.0,7.0,57,0.00,,,0.00,178.00,VWS V14.01,2013-11-11 14:36:00,
2013-11-11 09:41:00,41.1,27.0,30.20,WNW,291,0.0,7.0,57,0.00,,,0.00,171.00,VWS V14.01,2013-11-11 14:41:00,
2013-11-11 09:45:00,41.1,27.0,30.20,WNW,284,5.0,7.0,57,0.00,,,0.00,169.00,VWS V14.01,2013-11-11 14:45:00,
2013-11-11 09:46:00,41.2,27.1,30.20,West,263,6.0,6.0,57,0.00,,,0.00,171.00,VWS V14.01,2013-11-11 14:46:00,
2013-11-11 09:51:00,41.3,27.2,30.20,WNW,286,0.0,8.0,57,0.00,,,0.00,167.00,VWS V14.01,2013-11-11 14:51:00,
2013-11-11 09:55:00,41.6,27.9,30.20,West,269,5.0,8.0,58,0.00,,,0.00,169.00,VWS V14.01,2013-11-11 14:55:00,
2013-11-11 10:00:00,41.6,27.5,30.20,WSW,246,4.0,10.0,57,0.00,,,0.00,178.00,VWS V14.01,2013-11-11 15:00:00,
2013-11-11 10:05:00,41.6,27.5,30.20,West,275,7.0,10.0,57,0.00,,,0.00,195.00,VWS V14.01,2013-11-11 15:05:00,
2013-11-11 10:10:00,41.9,27.8,30.20,West,276,6.0,10.0,57,0.00,,,0.00,221.00,VWS V14.01,2013-11-11 15:10:00,
2013-11-11 10:15:00,42.1,28.0,30.19,West,263,7.0,7.0,57,0.00,,,0.00,234.00,VWS V14.01,2013-11-11 15:15:00,
2013-11-11 10:20:00,42.1,28.0,30.19,WNW,299,0.0,8.0,57,0.00,,,0.00,209.00,VWS V14.01,2013-11-11 15:20:00,
2013-11-11 10:25:00,42.3,28.2,30.19,NNW,330,0.0,8.0,57,0.00,,,0.00,192.00,VWS V14.01,2013-11-11 15:25:00,
2013-11-11 10:30:00,42.3,28.2,30.19,WNW,301,2.0,2.0,57,0.00,,,0.00,237.00,VWS V14.01,2013-11-11 15:30:00,
2013-11-11 10:35:00,42.2,28.1,30.19,WNW,286,7.0,10.0,57,0.00,,,0.00,209.00,VWS V14.01,2013-11-11 15:35:00,
2013-11-11 10:40:00,42.3,28.2,30.19,West,281,4.0,10.0,57,0.00,,,0.00,178.00,VWS V14.01,2013-11-11 15:40:00,
2013-11-11 10:45:00,42.3,28.2,30.19,WNW,288,5.0,6.0,57,0.00,,,0.00,213.00,VWS V14.01,2013-11-11 15:45:00,
2013-11-11 10:50:00,42.5,28.4,30.19,West,261,6.0,8.0,57,0.00,,,0.00,121.00,VWS V14.01,2013-11-11 15:50:00,
2013-11-11 10:55:00,42.5,28.4,30.19,SW,231,5.0,8.0,57,0.00,,,0.00,172.00,VWS V14.01,2013-11-11 15:55:00,
2013-11-11 11:00:00,42.5,28.4,30.18,West,279,6.0,10.0,57,0.00,,,0.00,318.00,VWS V14.01,2013-11-11 16:00:00,
2013-11-11 11:05:00,43.5,29.3,30.18,West,277,4.0,10.0,57,0.00,,,0.00,290.00,VWS V14.01,2013-11-11 16:05:00,
2013-11-11 11:10:00,43.9,28.8,30.18,SW,229,2.0,10.0,55,0.00,,,0.00,708.00,VWS V14.01,2013-11-11 16:10:00,
2013-11-11 11:15:00,44.6,29.5,30.17,SSW,208,6.0,9.0,55,0.00,,,0.00,269.00,VWS V14.01,2013-11-11 16:15:00,
2013-11-11 11:20:00,44.2,29.1,30.17,West,273,0.0,11.0,55,0.00,,,0.00,271.00,VWS V14.01,2013-11-11 16:20:00,
2013-11-11 11:25:00,44.3,29.6,30.17,West,278,4.0,11.0,56,0.00,,,0.00,244.00,VWS V14.01,2013-11-11 16:25:00,
2013-11-11 11:30:00,44.9,29.3,30.16,WNW,287,8.0,9.0,54,0.00,,,0.00,612.00,VWS V14.01,2013-11-11 16:30:00,
2013-11-11 11:35:00,45.2,29.6,30.16,NW,312,5.0,12.0,54,0.00,,,0.00,591.00,VWS V14.01,2013-11-11 16:35:00,
2013-11-11 11:40:00,46.0,29.8,30.16,WNW,297,0.0,12.0,53,0.00,,,0.00,513.00,VWS V14.01,2013-11-11 16:40:00,
2013-11-11 11:45:00,46.1,29.0,30.16,NW,309,2.0,11.0,51,0.00,,,0.00,589.00,VWS V14.01,2013-11-11 16:45:00,
2013-11-11 11:50:00,46.4,29.3,30.16,West,281,9.0,14.0,51,0.00,,,0.00,527.00,VWS V14.01,2013-11-11 16:50:00,
2013-11-11 11:55:00,46.7,29.1,30.16,SW,214,6.0,14.0,50,0.00,,,0.00,555.00,VWS V14.01,2013-11-11 16:55:00,
2013-11-11 12:00:00,47.1,28.9,30.14,West,270,7.0,11.0,49,0.00,,,0.00,550.00,VWS V14.01,2013-11-11 17:00:00,
2013-11-11 12:05:00,46.8,29.6,30.14,West,264,7.0,15.0,51,0.00,,,0.00,559.00,VWS V14.01,2013-11-11 17:05:00,
2013-11-11 12:10:00,47.1,29.9,30.14,West,271,6.0,15.0,51,0.00,,,0.00,531.00,VWS V14.01,2013-11-11 17:10:00,
2013-11-11 12:15:00,47.1,29.4,30.15,WNW,286,10.0,10.0,50,0.00,,,0.00,461.00,VWS V14.01,2013-11-11 17:15:00,
2013-11-11 12:20:00,47.1,29.4,30.15,West,273,5.0,13.0,50,0.00,,,0.00,529.00,VWS V14.01,2013-11-11 17:20:00,
2013-11-11 12:25:00,47.1,29.4,30.15,WNW,283,8.0,14.0,50,0.00,,,0.00,529.00,VWS V14.01,2013-11-11 17:25:00,
2013-11-11 12:30:00,47.7,29.5,30.14,WSW,255,11.0,16.0,49,0.00,,,0.00,534.00,VWS V14.01,2013-11-11 17:30:00,
2013-11-11 12:35:00,47.9,29.7,30.14,West,266,7.0,16.0,49,0.00,,,0.00,508.00,VWS V14.01,2013-11-11 17:35:00,
2013-11-11 12:40:00,48.0,29.8,30.14,West,267,11.0,16.0,49,0.00,,,0.00,492.00,VWS V14.01,2013-11-11 17:40:00,
2013-11-11 12:45:00,48.0,29.8,30.13,NW,313,9.0,14.0,49,0.00,,,0.00,420.00,VWS V14.01,2013-11-11 17:45:00,
2013-11-11 12:50:00,48.2,30.5,30.13,SW,223,12.0,16.0,50,0.00,,,0.00,550.00,VWS V14.01,2013-11-11 17:50:00,
2013-11-11 12:55:00,47.9,30.2,30.13,WSW,245,6.0,16.0,50,0.00,,,0.00,369.00,VWS V14.01,2013-11-11 17:55:00,
2013-11-11 13:00:00,47.7,30.0,30.12,SW,223,4.0,13.0,50,0.00,,,0.00,650.00,VWS V14.01,2013-11-11 18:00:00,
2013-11-11 13:05:00,47.9,30.2,30.12,WSW,255,6.0,15.0,50,0.00,,,0.00,714.00,VWS V14.01,2013-11-11 18:05:00,
2013-11-11 13:10:00,48.6,30.8,30.12,WNW,291,4.0,15.0,50,0.00,,,0.00,410.00,VWS V14.01,2013-11-11 18:10:00,
2013-11-11 13:15:00,48.6,30.3,30.11,WNW,287,10.0,12.0,49,0.00,,,0.00,403.00,VWS V14.01,2013-11-11 18:15:00,
2013-11-11 13:20:00,49.2,30.4,30.11,WSW,257,6.0,15.0,48,0.00,,,0.00,357.00,VWS V14.01,2013-11-11 18:20:00,
2013-11-11 13:25:00,49.1,30.3,30.11,SW,223,5.0,15.0,48,0.00,,,0.00,352.00,VWS V14.01,2013-11-11 18:25:00,
2013-11-11 13:30:00,48.8,30.0,30.10,West,279,8.0,8.0,48,0.00,,,0.00,318.00,VWS V14.01,2013-11-11 18:30:00,
2013-11-11 13:35:00,48.8,30.0,30.10,West,281,10.0,18.0,48,0.00,,,0.00,285.00,VWS V14.01,2013-11-11 18:35:00,
2013-11-11 13:40:00,48.8,30.0,30.10,WSW,256,6.0,18.0,48,0.00,,,0.00,237.00,VWS V14.01,2013-11-11 18:40:00,
2013-11-11 13:45:00,48.8,30.5,30.09,West,279,9.0,11.0,49,0.00,,,0.00,243.00,VWS V14.01,2013-11-11 18:45:00,
2013-11-11 13:50:00,48.8,30.0,30.09,WSW,244,11.0,15.0,48,0.00,,,0.00,262.00,VWS V14.01,2013-11-11 18:50:00,
2013-11-11 13:55:00,48.9,30.1,30.09,WSW,252,11.0,15.0,48,0.00,,,0.00,236.00,VWS V14.01,2013-11-11 18:55:00,
2013-11-11 14:00:00,49.1,29.8,30.08,WSW,252,5.0,11.0,47,0.00,,,0.00,218.00,VWS V14.01,2013-11-11 19:00:00,
2013-11-11 14:05:00,49.6,29.7,30.08,WSW,250,9.0,20.0,46,0.00,,,0.00,466.00,VWS V14.01,2013-11-11 19:05:00,
2013-11-11 14:10:00,49.9,30.0,30.08,WSW,255,9.0,20.0,46,0.00,,,0.00,469.00,VWS V14.01,2013-11-11 19:10:00,
2013-11-11 14:15:00,50.8,30.8,30.08,South,173,9.0,10.0,46,0.00,,,0.00,526.00,VWS V14.01,2013-11-11 19:15:00,
2013-11-11 14:20:00,51.3,30.1,30.08,SW,214,11.0,16.0,44,0.00,,,0.00,489.00,VWS V14.01,2013-11-11 19:20:00,
2013-11-11 14:25:00,51.1,30.0,30.08,SW,221,11.0,16.0,44,0.00,,,0.00,172.00,VWS V14.01,2013-11-11 19:25:00,
2013-11-11 14:30:00,51.0,29.9,30.08,West,281,7.0,10.0,44,0.00,,,0.00,118.00,VWS V14.01,2013-11-11 19:30:00,
2013-11-11 14:35:00,50.8,29.7,30.08,WSW,240,7.0,10.0,44,0.00,,,0.00,93.00,VWS V14.01,2013-11-11 19:35:00,
2013-11-11 14:40:00,50.7,30.1,30.08,West,261,7.0,10.0,45,0.00,,,0.00,88.00,VWS V14.01,2013-11-11 19:40:00,
2013-11-11 14:45:00,50.4,29.3,30.06,WSW,253,7.0,9.0,44,0.00,,,0.00,76.00,VWS V14.01,2013-11-11 19:45:00,
2013-11-11 14:50:00,50.2,29.1,30.06,West,271,6.0,12.0,44,0.00,,,0.00,65.00,VWS V14.01,2013-11-11 19:50:00,
2013-11-11 14:55:00,50.1,29.0,30.06,West,277,9.0,15.0,44,0.00,,,0.00,53.00,VWS V14.01,2013-11-11 19:55:00,
2013-11-11 15:00:00,50.1,29.6,30.07,West,262,14.0,14.0,45,0.00,,,0.00,49.00,VWS V14.01,2013-11-11 20:00:00,
2013-11-11 15:05:00,49.9,29.4,30.07,WNW,284,5.0,15.0,45,0.00,,,0.00,46.00,VWS V14.01,2013-11-11 20:05:00,
2013-11-11 15:10:00,49.9,30.0,30.07,West,273,5.0,15.0,46,0.00,,,0.00,42.00,VWS V14.01,2013-11-11 20:10:00,
2013-11-11 15:15:00,49.8,30.4,30.07,West,276,6.0,9.0,47,0.00,,,0.00,39.00,VWS V14.01,2013-11-11 20:15:00,
2013-11-11 15:20:00,49.6,30.2,30.07,WSW,257,0.0,12.0,47,0.00,,,0.00,39.00,VWS V14.01,2013-11-11 20:20:00,
2013-11-11 15:25:00,49.6,30.2,30.07,WSW,241,10.0,12.0,47,0.00,,,0.00,37.00,VWS V14.01,2013-11-11 20:25:00,
2013-11-11 15:30:00,49.5,30.1,30.06,WNW,296,9.0,9.0,47,0.00,,,0.00,32.00,VWS V14.01,2013-11-11 20:30:00,
2013-11-11 15:35:00,49.4,30.0,30.06,WSW,256,6.0,20.0,47,0.00,,,0.00,28.00,VWS V14.01,2013-11-11 20:35:00,
2013-11-11 15:40:00,49.4,30.0,30.06,WNW,286,12.0,20.0,47,0.00,,,0.00,26.00,VWS V14.01,2013-11-11 20:40:00,
2013-11-11 15:45:00,49.2,29.9,30.05,WSW,245,12.0,12.0,47,0.00,,,0.00,23.00,VWS V14.01,2013-11-11 20:45:00,
2013-11-11 15:50:00,49.2,29.9,30.05,West,261,7.0,13.0,47,0.00,,,0.00,21.00,VWS V14.01,2013-11-11 20:50:00,
2013-11-11 15:55:00,49.2,29.9,30.05,WNW,285,0.0,13.0,47,0.00,,,0.00,19.00,VWS V14.01,2013-11-11 20:55:00,
2013-11-11 16:00:00,49.2,29.9,30.05,WSW,248,5.0,7.0,47,0.00,,,0.00,16.00,VWS V14.01,2013-11-11 21:00:00,
2013-11-11 16:05:00,49.2,29.9,30.05,West,265,6.0,13.0,47,0.00,,,0.00,14.00,VWS V14.01,2013-11-11 21:05:00,
2013-11-11 16:10:00,49.2,29.9,30.05,WSW,248,5.0,13.0,47,0.00,,,0.00,11.00,VWS V14.01,2013-11-11 21:10:00,
2013-11-11 16:15:00,49.1,30.3,30.05,West,259,8.0,11.0,48,0.00,,,0.00,11.00,VWS V14.01,2013-11-11 21:15:00,
2013-11-11 16:20:00,49.1,30.3,30.05,West,271,7.0,11.0,48,0.00,,,0.00,9.00,VWS V14.01,2013-11-11 21:20:00,
2013-11-11 16:25:00,49.1,30.3,30.05,WSW,240,5.0,24.0,48,0.00,,,0.00,7.00,VWS V14.01,2013-11-11 21:25:00,
2013-11-11 16:30:00,48.9,30.6,30.04,WNW,298,7.0,9.0,49,0.00,,,0.00,5.00,VWS V14.01,2013-11-11 21:30:00,
2013-11-11 16:35:00,48.9,30.1,30.04,WSW,255,15.0,18.0,48,0.00,,,0.00,0.00,VWS V14.01,2013-11-11 21:35:00,
2013-11-11 16:40:00,48.9,30.1,30.04,NW,304,5.0,18.0,48,0.00,,,0.00,0.00,VWS V14.01,2013-11-11 21:40:00,
2013-11-11 16:45:00,48.8,30.0,30.05,West,261,1.0,6.0,48,0.00,,,0.00,0.00,VWS V14.01,2013-11-11 21:45:00,
2013-11-11 16:50:00,48.8,30.0,30.05,WSW,241,1.0,11.0,48,0.00,,,0.00,0.00,VWS V14.01,2013-11-11 21:50:00,
2013-11-11 16:55:00,48.6,29.8,30.05,NW,304,5.0,11.0,48,0.00,,,0.00,0.00,VWS V14.01,2013-11-11 21:55:00,
2013-11-11 17:00:00,48.6,29.8,30.04,West,260,5.0,7.0,48,0.00,,,0.00,0.00,VWS V14.01,2013-11-11 22:00:00,
2013-11-11 17:05:00,48.6,29.8,30.04,West,269,0.0,9.0,48,0.00,,,0.00,0.00,VWS V14.01,2013-11-11 22:05:00,
2013-11-11 17:10:00,48.6,29.8,30.04,West,265,0.0,9.0,48,0.00,,,0.00,0.00,VWS V14.01,2013-11-11 22:10:00,
2013-11-11 17:15:00,48.5,29.7,30.03,SW,232,1.0,6.0,48,0.00,,,0.00,0.00,VWS V14.01,2013-11-11 22:15:00,
2013-11-11 17:20:00,48.5,29.7,30.03,West,269,5.0,7.0,48,0.00,,,0.00,0.00,VWS V14.01,2013-11-11 22:20:00,
2013-11-11 17:25:00,48.5,29.2,30.03,SW,232,3.0,7.0,47,0.00,,,0.00,0.00,VWS V14.01,2013-11-11 22:25:00,
2013-11-11 17:30:00,48.6,29.3,30.03,WSW,257,0.0,0.0,47,0.00,,,0.00,0.00,VWS V14.01,2013-11-11 22:30:00,
2013-11-11 17:35:00,48.6,29.8,30.03,SW,236,13.0,18.0,48,0.00,,,0.00,0.00,VWS V14.01,2013-11-11 22:35:00,
2013-11-11 17:39:00,48.6,29.8,30.03,West,269,7.0,18.0,48,0.00,,,0.00,0.00,VWS V14.01,2013-11-11 22:39:00,
2013-11-11 17:44:00,48.6,29.8,30.03,WNW,288,5.0,6.0,48,0.00,,,0.00,0.00,VWS V14.01,2013-11-11 22:44:00,
2013-11-11 17:45:00,48.6,29.8,30.03,WNW,300,4.0,18.0,48,0.00,,,0.00,0.00,VWS V14.01,2013-11-11 22:45:00,
2013-11-11 17:49:00,48.6,30.3,30.03,WNW,288,0.0,10.0,49,0.00,,,0.00,0.00,VWS V14.01,2013-11-11 22:49:00,
2013-11-11 17:54:00,48.6,30.3,30.03,West,259,4.0,10.0,49,0.00,,,0.00,0.00,VWS V14.01,2013-11-11 22:54:00,
2013-11-11 17:59:00,48.6,30.3,30.03,West,272,5.0,5.0,49,0.00,,,0.00,0.00,VWS V14.01,2013-11-11 22:59:00,
2013-11-11 18:00:00,48.6,30.3,30.03,West,265,5.0,11.0,49,0.00,,,0.00,0.00,VWS V14.01,2013-11-11 23:00:00,
2013-11-11 18:04:00,48.6,30.8,30.03,West,263,0.0,8.0,50,0.00,,,0.00,0.00,VWS V14.01,2013-11-11 23:04:00,
2013-11-11 18:09:00,48.6,30.8,30.03,West,263,4.0,8.0,50,0.00,,,0.00,0.00,VWS V14.01,2013-11-11 23:09:00,
2013-11-11 18:14:00,48.6,30.8,30.03,West,268,7.0,7.0,50,0.00,,,0.00,0.00,VWS V14.01,2013-11-11 23:14:00,
2013-11-11 18:15:00,48.6,30.8,30.03,West,273,3.0,9.0,50,0.00,,,0.00,0.00,VWS V14.01,2013-11-11 23:15:00,
2013-11-11 18:19:00,48.6,30.8,30.03,WSW,242,0.0,10.0,50,0.00,,,0.00,0.00,VWS V14.01,2013-11-11 23:19:00,
2013-11-11 18:24:00,48.6,30.8,30.03,SW,215,0.0,10.0,50,0.00,,,0.00,0.00,VWS V14.01,2013-11-11 23:24:00,
2013-11-11 18:29:00,48.6,30.8,30.03,West,267,7.0,8.0,50,0.00,,,0.00,0.00,VWS V14.01,2013-11-11 23:29:00,
2013-11-11 18:30:00,48.6,30.8,30.03,WSW,253,8.0,10.0,50,0.00,,,0.00,0.00,VWS V14.01,2013-11-11 23:30:00,
2013-11-11 18:34:00,48.6,31.3,30.03,West,277,7.0,8.0,51,0.00,,,0.00,0.00,VWS V14.01,2013-11-11 23:34:00,
2013-11-11 18:39:00,48.6,31.3,30.03,WSW,243,5.0,9.0,51,0.00,,,0.00,0.00,VWS V14.01,2013-11-11 23:39:00,
2013-11-11 18:44:00,48.6,31.3,30.02,West,259,5.0,9.0,51,0.00,,,0.00,0.00,VWS V14.01,2013-11-11 23:44:00,
2013-11-11 18:45:00,48.6,31.3,30.02,West,259,5.0,9.0,51,0.00,,,0.00,0.00,VWS V14.01,2013-11-11 23:45:00,
2013-11-11 18:49:00,48.6,31.3,30.02,West,259,2.0,10.0,51,0.00,,,0.00,0.00,VWS V14.01,2013-11-11 23:49:00,
2013-11-11 18:54:00,48.6,31.3,30.02,WSW,239,6.0,10.0,51,0.00,,,0.00,0.00,VWS V14.01,2013-11-11 23:54:00,
2013-11-11 18:59:00,48.6,31.3,30.01,SW,215,7.0,10.0,51,0.00,,,0.00,0.00,VWS V14.01,2013-11-11 23:59:00,
2013-11-11 19:00:00,48.6,31.3,30.01,SW,215,7.0,10.0,51,0.00,,,0.00,0.00,VWS V14.01,2013-11-12 00:00:00,
2013-11-11 19:04:00,48.6,31.3,30.01,SSW,198,8.0,13.0,51,0.00,,,0.00,0.00,VWS V14.01,2013-11-12 00:04:00,
2013-11-11 19:09:00,48.8,31.5,30.01,SW,231,13.0,16.0,51,0.00,,,0.00,0.00,VWS V14.01,2013-11-12 00:09:00,
2013-11-11 19:14:00,48.8,31.5,30.00,WNW,292,6.0,8.0,51,0.00,,,0.00,0.00,VWS V14.01,2013-11-12 00:14:00,
2013-11-11 19:15:00,48.8,31.5,30.00,West,276,8.0,16.0,51,0.00,,,0.00,0.00,VWS V14.01,2013-11-12 00:15:00,
2013-11-11 19:19:00,48.8,31.5,30.00,West,266,3.0,11.0,51,0.00,,,0.00,0.00,VWS V14.01,2013-11-12 00:19:00,
2013-11-11 19:24:00,48.8,31.5,30.00,West,281,6.0,11.0,51,0.00,,,0.00,0.00,VWS V14.01,2013-11-12 00:24:00,
2013-11-11 19:29:00,48.8,31.5,30.00,WSW,249,0.0,11.0,51,0.00,,,0.00,0.00,VWS V14.01,2013-11-12 00:29:00,
2013-11-11 19:30:00,48.8,31.5,30.00,WSW,249,0.0,11.0,51,0.00,,,0.00,0.00,VWS V14.01,2013-11-12 00:30:00,
2013-11-11 19:34:00,48.8,31.5,30.00,West,259,6.0,9.0,51,0.00,,,0.00,0.00,VWS V14.01,2013-11-12 00:34:00,
2013-11-11 19:39:00,48.8,31.5,30.00,SSW,203,11.0,13.0,51,0.00,,,0.00,0.00,VWS V14.01,2013-11-12 00:39:00,
2013-11-11 19:44:00,48.8,31.5,30.00,WSW,248,2.0,13.0,51,0.00,,,0.00,0.00,VWS V14.01,2013-11-12 00:44:00,
2013-11-11 19:45:00,48.8,31.5,30.00,WSW,248,2.0,13.0,51,0.00,,,0.00,0.00,VWS V14.01,2013-11-12 00:45:00,
2013-11-11 19:49:00,48.6,31.3,30.00,West,267,0.0,8.0,51,0.00,,,0.00,0.00,VWS V14.01,2013-11-12 00:49:00,
2013-11-11 19:54:00,48.6,31.8,30.00,West,264,6.0,12.0,52,0.00,,,0.00,0.00,VWS V14.01,2013-11-12 00:54:00,
2013-11-11 19:59:00,48.6,31.8,30.00,WSW,254,1.0,13.0,52,0.00,,,0.00,0.00,VWS V14.01,2013-11-12 00:59:00,
2013-11-11 20:00:00,48.6,31.8,30.00,WSW,254,1.0,13.0,52,0.00,,,0.00,0.00,VWS V14.01,2013-11-12 01:00:00,
2013-11-11 20:04:00,48.5,31.7,30.00,WSW,255,5.0,9.0,52,0.00,,,0.00,0.00,VWS V14.01,2013-11-12 01:04:00,
2013-11-11 20:09:00,48.5,31.7,30.00,West,265,7.0,13.0,52,0.00,,,0.00,0.00,VWS V14.01,2013-11-12 01:09:00,
2013-11-11 20:14:00,48.5,31.7,30.00,WSW,250,11.0,16.0,52,0.00,,,0.00,0.00,VWS V14.01,2013-11-12 01:14:00,
2013-11-11 20:15:00,48.5,31.7,30.00,WSW,250,11.0,16.0,52,0.00,,,0.00,0.00,VWS V14.01,2013-11-12 01:15:00,
2013-11-11 20:19:00,48.5,31.7,30.00,WNW,284,2.0,13.0,52,0.00,,,0.00,0.00,VWS V14.01,2013-11-12 01:19:00,
2013-11-11 20:24:00,48.5,31.7,30.00,West,265,8.0,13.0,52,0.00,,,0.00,0.00,VWS V14.01,2013-11-12 01:24:00,
2013-11-11 20:29:00,48.3,31.5,30.00,SW,234,6.0,13.0,52,0.00,,,0.00,0.00,VWS V14.01,2013-11-12 01:29:00,
2013-11-11 20:30:00,48.3,31.5,30.00,SW,234,6.0,13.0,52,0.00,,,0.00,0.00,VWS V14.01,2013-11-12 01:30:00,
2013-11-11 20:34:00,48.5,31.7,30.00,West,259,8.0,12.0,52,0.00,,,0.00,0.00,VWS V14.01,2013-11-12 01:34:00,
2013-11-11 20:39:00,48.5,31.7,30.00,West,268,8.0,14.0,52,0.00,,,0.00,0.00,VWS V14.01,2013-11-12 01:39:00,
2013-11-11 20:44:00,48.3,31.5,30.00,West,278,7.0,7.0,52,0.00,,,0.00,0.00,VWS V14.01,2013-11-12 01:44:00,
2013-11-11 20:45:00,48.3,31.5,30.00,SW,236,6.0,14.0,52,0.00,,,0.00,0.00,VWS V14.01,2013-11-12 01:45:00,
2013-11-11 20:49:00,48.3,31.5,30.00,West,260,7.0,12.0,52,0.00,,,0.00,0.00,VWS V14.01,2013-11-12 01:49:00,
2013-11-11 20:54:00,48.3,32.0,30.00,WNW,282,11.0,12.0,53,0.00,,,0.00,0.00,VWS V14.01,2013-11-12 01:54:00,
2013-11-11 20:59:00,48.3,32.0,30.00,SSW,204,0.0,12.0,53,0.00,,,0.00,0.00,VWS V14.01,2013-11-12 01:59:00,
2013-11-11 21:00:00,48.3,32.0,30.00,SSW,204,0.0,12.0,53,0.00,,,0.00,0.00,VWS V14.01,2013-11-12 02:00:00,
2013-11-11 21:14:00,48.3,32.0,30.00,West,279,6.0,6.0,53,0.00,,,0.00,0.00,VWS V14.01,2013-11-12 02:14:00,
2013-11-11 21:15:00,48.3,32.0,30.00,WSW,256,6.0,12.0,53,0.00,,,0.00,0.00,VWS V14.01,2013-11-12 02:15:00,
2013-11-11 21:22:00,48.2,31.9,30.00,NW,311,0.0,0.0,53,0.00,,,0.00,0.00,VWS V14.01,2013-11-12 02:22:00,
2013-11-11 21:27:00,48.2,31.9,30.00,West,262,0.0,12.0,53,0.00,,,0.00,0.00,VWS V14.01,2013-11-12 02:27:00,
2013-11-11 21:30:00,48.2,32.3,29.98,West,275,4.0,12.0,54,0.00,,,0.00,0.00,VWS V14.01,2013-11-12 02:30:00,
2013-11-11 21:32:00,48.2,31.9,29.99,SW,232,4.0,13.0,53,0.00,,,0.00,0.00,VWS V14.01,2013-11-12 02:32:00,
2013-11-11 21:37:00,48.2,32.3,29.99,SW,221,0.0,13.0,54,0.00,,,0.00,0.00,VWS V14.01,2013-11-12 02:37:00,
2013-11-11 21:42:00,48.2,32.3,29.99,WNW,292,0.0,13.0,54,0.00,,,0.00,0.00,VWS V14.01,2013-11-12 02:42:00,
2013-11-11 21:45:00,48.2,32.8,29.97,WNW,286,6.0,10.0,55,0.00,,,0.00,0.00,VWS V14.01,2013-11-12 02:45:00,
2013-11-11 21:47:00,48.2,32.3,29.99,WNW,291,5.0,7.0,54,0.00,,,0.00,0.00,VWS V14.01,2013-11-12 02:47:00,
2013-11-11 21:52:00,48.0,32.2,29.99,WNW,283,7.0,8.0,54,0.00,,,0.00,0.00,VWS V14.01,2013-11-12 02:52:00,
2013-11-11 21:57:00,48.0,32.2,29.99,WSW,237,8.0,14.0,54,0.00,,,0.00,0.00,VWS V14.01,2013-11-12 02:57:00,
2013-11-11 22:00:00,48.2,32.8,29.97,West,267,1.0,8.0,55,0.00,,,0.00,0.00,VWS V14.01,2013-11-12 03:00:00,
2013-11-11 22:02:00,48.0,32.2,29.98,SW,227,1.0,8.0,54,0.00,,,0.00,0.00,VWS V14.01,2013-11-12 03:02:00,
2013-11-11 22:07:00,48.0,32.2,29.98,NW,308,4.0,9.0,54,0.00,,,0.00,0.00,VWS V14.01,2013-11-12 03:07:00,
2013-11-11 22:12:00,48.0,32.2,29.98,WNW,292,6.0,10.0,54,0.00,,,0.00,0.00,VWS V14.01,2013-11-12 03:12:00,
2013-11-11 22:15:00,48.0,32.6,29.97,West,268,0.0,5.0,55,0.00,,,0.00,0.00,VWS V14.01,2013-11-12 03:15:00,
2013-11-11 22:17:00,48.0,32.2,29.98,WSW,257,4.0,9.0,54,0.00,,,0.00,0.00,VWS V14.01,2013-11-12 03:17:00,
2013-11-11 22:22:00,48.0,32.6,29.98,West,265,3.0,9.0,55,0.00,,,0.00,0.00,VWS V14.01,2013-11-12 03:22:00,
2013-11-11 22:27:00,48.2,32.3,29.98,West,263,0.0,12.0,54,0.00,,,0.00,0.00,VWS V14.01,2013-11-12 03:27:00,
2013-11-11 22:30:00,48.0,32.6,29.97,WSW,242,0.0,6.0,55,0.00,,,0.00,0.00,VWS V14.01,2013-11-12 03:30:00,
2013-11-11 22:32:00,48.2,32.3,29.98,WSW,244,5.0,8.0,54,0.00,,,0.00,0.00,VWS V14.01,2013-11-12 03:32:00,
2013-11-11 22:37:00,48.2,32.3,29.98,SW,235,5.0,10.0,54,0.00,,,0.00,0.00,VWS V14.01,2013-11-12 03:37:00,
2013-11-11 22:42:00,48.2,32.3,29.98,West,276,0.0,10.0,54,0.00,,,0.00,0.00,VWS V14.01,2013-11-12 03:42:00,
2013-11-11 22:45:00,48.0,32.6,29.97,WNW,283,0.0,7.0,55,0.00,,,0.00,0.00,VWS V14.01,2013-11-12 03:45:00,
2013-11-11 22:56:00,48.2,32.8,29.97,West,267,8.0,8.0,55,0.00,,,0.00,0.00,VWS V14.01,2013-11-12 03:56:00,
2013-11-11 23:00:00,48.0,32.6,29.96,West,271,4.0,9.0,55,0.00,,,0.00,0.00,VWS V14.01,2013-11-12 04:00:00,
2013-11-11 23:01:00,48.2,32.8,29.97,West,267,0.0,1.0,55,0.00,,,0.00,0.00,VWS V14.01,2013-11-12 04:01:00,
2013-11-11 23:06:00,48.2,32.8,29.97,WSW,239,0.0,5.0,55,0.00,,,0.00,0.00,VWS V14.01,2013-11-12 04:06:00,
2013-11-11 23:11:00,48.0,32.6,29.97,West,268,0.0,5.0,55,0.00,,,0.00,0.00,VWS V14.01,2013-11-12 04:11:00,
2013-11-11 23:15:00,48.0,32.6,29.96,WNW,287,0.0,8.0,55,0.00,,,0.00,0.00,VWS V14.01,2013-11-12 04:15:00,
2013-11-11 23:16:00,48.0,32.6,29.97,West,268,0.0,4.0,55,0.00,,,0.00,0.00,VWS V14.01,2013-11-12 04:16:00,
2013-11-11 23:21:00,48.0,32.6,29.97,West,268,3.0,6.0,55,0.00,,,0.00,0.00,VWS V14.01,2013-11-12 04:21:00,
2013-11-11 23:26:00,48.0,32.6,29.97,SW,233,6.0,6.0,55,0.00,,,0.00,0.00,VWS V14.01,2013-11-12 04:26:00,
2013-11-11 23:30:00,48.2,32.8,29.96,West,261,4.0,8.0,55,0.00,,,0.00,0.00,VWS V14.01,2013-11-12 04:30:00,
2013-11-11 23:31:00,48.0,32.6,29.97,WSW,242,1.0,1.0,55,0.00,,,0.00,0.00,VWS V14.01,2013-11-12 04:31:00,
2013-11-11 23:36:00,48.0,32.6,29.97,WSW,258,0.0,7.0,55,0.00,,,0.00,0.00,VWS V14.01,2013-11-12 04:36:00,
2013-11-11 23:41:00,48.0,32.6,29.97,WSW,240,1.0,7.0,55,0.00,,,0.00,0.00,VWS V14.01,2013-11-12 04:41:00,
2013-11-11 23:45:00,48.3,32.9,29.96,WNW,284,0.0,11.0,55,0.00,,,0.00,0.00,VWS V14.01,2013-11-12 04:45:00,
2013-11-11 23:46:00,48.0,33.1,29.97,WNW,283,0.0,4.0,56,0.00,,,0.00,0.00,VWS V14.01,2013-11-12 04:46:00,
2013-11-11 23:51:00,48.0,32.6,29.97,West,278,0.0,6.0,55,0.00,,,0.00,0.00,VWS V14.01,2013-11-12 04:51:00,
2013-11-11 23:56:00,48.0,33.1,29.97,WNW,286,1.0,9.0,56,0.00,,,0.00,0.00,VWS V14.01,2013-11-12 04:56:00,